User: anonymous   Login
Location: Mount Kobau Star Party
(49.1167°N, 119.7333°W)
Time: 21:15:15
(UTC-07:00)
Language:

TSX-5 - Orbit

View from above orbital plane
View from above orbital plane
View from above satellite
View from above satellite

Ground track
Ground track

The orbit data is extracted from the following two-line orbital elements,

1 26374U 00030A   17296.33991425 +.00001808 +00000-0 +16230-3 0  9998
2 26374 068.9300 221.7862 0644138 129.1069 236.9157 14.05509694874108
Epoch (UTC): 23 October 2017 08:09:28
Eccentricity: 0.0644138
inclination: 68.9300°
perigee height: 407 km
apogee height: 1342 km
right ascension of ascending node: 221.7862°
argument of perigee: 129.1069°
revolutions per day: 14.05509694
mean anomaly at epoch: 236.9157°
orbit number at epoch: 87410

The dashed part of the orbit path shows where the satellite is in the earth's shadow,  

DLR